When you browse on this site, cookies collect data to enhance your experience and personalize the content and advertising you see.
Visit our Privacy Policy to learn more. By continuing to use the site, you agree to this use of cookies and data.
  • In Austria
  • List of Countries
  • For 7 days
  • Water Temperature
  • Satellite Maps
  • Weather Map
  • News
  • Weather Widgets
  • user-avatar
    Login

    Hourly Weather Uige

    Today, 24 March, Sunday

    Time Temperature Precipitation Wind Pressure Humidity
    00:00 +24°C° 0.1 mm 1 mps 690 mmHg 99%
    01:00 +23°C° 0 mm 1 mps 691 mmHg 98%
    02:00 +23°C° 0.1 mm 1 mps 690 mmHg 98%
    03:00 +23°C° 0.1 mm 1 mps 690 mmHg 99%
    04:00 +24°C° 0.1 mm 1 mps 690 mmHg 99%
    05:00 +24°C° 0 mm 1 mps 690 mmHg 98%
    06:00 +24°C° 0 mm 1 mps 690 mmHg 98%
    07:00 +24°C° 0 mm 1 mps 691 mmHg 97%
    08:00 +25°C° 0.1 mm 1 mps 691 mmHg 91%
    09:00 +27°C° 0.1 mm 1 mps 691 mmHg 85%
    10:00 +28°C° 0.1 mm 2 mps 692 mmHg 79%
    11:00 +29°C° 0.7 mm 1 mps 691 mmHg 75%
    12:00 +29°C° 0.7 mm 1 mps 691 mmHg 71%
    13:00 +30°C° 0.7 mm 1 mps 691 mmHg 67%
    14:00 +30°C° 0.5 mm 1 mps 690 mmHg 67%
    15:00 +30°C° 0.5 mm 1 mps 690 mmHg 67%
    16:00 +30°C° 0.5 mm 1 mps 689 mmHg 67%
    17:00 +28°C° 1.5 mm 1 mps 690 mmHg 77%
    18:00 +26°C° 1.5 mm 1 mps 690 mmHg 86%
    19:00 +24°C° 1.5 mm 2 mps 690 mmHg 95%
    20:00 +24°C° 2.3 mm 1 mps 690 mmHg 96%
    21:00 +23°C° 2.3 mm 1 mps 691 mmHg 96%
    22:00 +23°C° 2.3 mm 1 mps 691 mmHg 96%
    23:00 +23°C° 1.2 mm 1 mps 691 mmHg 96%

    Tomorrow, 25 March, Monday

    Time Temperature Precipitation Wind Pressure Humidity
    00:00 +20°C° 1.2 mm 0 mps 691 mmHg 97%
    01:00 +20°C° 1.2 mm 0 mps 690 mmHg 97%
    02:00 +20°C° 0 mm 0 mps 690 mmHg 97%
    03:00 +20°C° 0 mm 0 mps 690 mmHg 97%
    04:00 +20°C° 0 mm 0 mps 690 mmHg 97%
    05:00 +20°C° 0 mm 0 mps 690 mmHg 97%
    06:00 +22°C° 0 mm 1 mps 690 mmHg 97%
    07:00 +22°C° 0 mm 1 mps 690 mmHg 97%
    08:00 +24°C° 0.1 mm 1 mps 691 mmHg 91%
    09:00 +25°C° 0.1 mm 1 mps 691 mmHg 86%
    10:00 +27°C° 0.1 mm 1 mps 692 mmHg 80%
    11:00 +27°C° 1.6 mm 1 mps 691 mmHg 81%
    12:00 +28°C° 1.6 mm 1 mps 691 mmHg 81%
    13:00 +29°C° 1.6 mm 1 mps 690 mmHg 81%
    14:00 +28°C° 1.2 mm 1 mps 690 mmHg 82%
    15:00 +28°C° 1.2 mm 1 mps 689 mmHg 83%
    16:00 +28°C° 1.2 mm 1 mps 689 mmHg 84%
    17:00 +26°C° 1.1 mm 1 mps 689 mmHg 88%
    18:00 +25°C° 1.1 mm 1 mps 689 mmHg 91%
    19:00 +21°C° 1.1 mm 0 mps 690 mmHg 94%
    20:00 +23°C° 0.3 mm 1 mps 690 mmHg 95%
    21:00 +23°C° 0.3 mm 1 mps 691 mmHg 96%
    22:00 +22°C° 0.3 mm 1 mps 691 mmHg 97%
    23:00 +22°C° 0.1 mm 1 mps 691 mmHg 97%

    Day after tomorrow, 26 March, Tuesday

    Time Temperature Precipitation Wind Pressure Humidity
    00:00 +20°C° 0.1 mm 0 mps 691 mmHg 98%
    01:00 +20°C° 0.1 mm 0 mps 691 mmHg 98%
    02:00 +22°C° 0 mm 1 mps 690 mmHg 99%
    03:00 +22°C° 0 mm 1 mps 690 mmHg 99%
    04:00 +22°C° 0 mm 1 mps 690 mmHg 99%
    05:00 +22°C° 0 mm 1 mps 690 mmHg 99%
    06:00 +22°C° 0 mm 1 mps 691 mmHg 98%
    07:00 +20°C° 0 mm 0 mps 691 mmHg 98%
    08:00 +24°C° 0 mm 1 mps 692 mmHg 90%
    09:00 +26°C° 0 mm 1 mps 693 mmHg 83%
    10:00 +27°C° 0 mm 1 mps 693 mmHg 76%
    11:00 +28°C° 0.3 mm 1 mps 693 mmHg 77%
    12:00 +28°C° 0.3 mm 1 mps 692 mmHg 77%
    13:00 +28°C° 0.3 mm 1 mps 691 mmHg 78%
    14:00 +28°C° 0.9 mm 1 mps 691 mmHg 79%
    15:00 +28°C° 0.9 mm 1 mps 690 mmHg 80%
    16:00 +28°C° 0.9 mm 1 mps 690 mmHg 81%
    17:00 +26°C° 0.5 mm 1 mps 690 mmHg 86%
    18:00 +25°C° 0.5 mm 1 mps 690 mmHg 91%
    19:00 +23°C° 0.5 mm 1 mps 691 mmHg 97%
    20:00 +23°C° 0.3 mm 1 mps 691 mmHg 97%
    21:00 +21°C° 0.3 mm 0 mps 692 mmHg 97%
    22:00 +20°C° 0.3 mm 0 mps 692 mmHg 98%
    23:00 +20°C° 0 mm 0 mps 692 mmHg 98%

    27 March, Wednesday

    Time Temperature Precipitation Wind Pressure Humidity
    00:00 +20°C° 0 mm 0 mps 691 mmHg 98%
    01:00 +20°C° 0 mm 0 mps 691 mmHg 99%
    02:00 +22°C° 0 mm 1 mps 691 mmHg 99%
    03:00 +21°C° 0 mm 1 mps 690 mmHg 99%
    04:00 +21°C° 0 mm 1 mps 690 mmHg 99%
    05:00 +22°C° 0 mm 1 mps 690 mmHg 98%
    06:00 +22°C° 0 mm 1 mps 691 mmHg 97%
    07:00 +22°C° 0 mm 1 mps 691 mmHg 96%
    08:00 +26°C° 0 mm 1 mps 692 mmHg 83%
    09:00 +29°C° 0 mm 1 mps 693 mmHg 70%
    10:00 +32°C° 0 mm 1 mps 694 mmHg 56%
    11:00 +33°C° 0 mm 1 mps 693 mmHg 52%
    12:00 +34°C° 0 mm 1 mps 693 mmHg 47%
    13:00 +36°C° 0 mm 1 mps 692 mmHg 42%
    14:00 +34°C° 0 mm 1 mps 691 mmHg 47%
    15:00 +33°C° 0 mm 1 mps 691 mmHg 52%
    16:00 +32°C° 0 mm 1 mps 690 mmHg 57%
    17:00 +30°C° 0.1 mm 1 mps 690 mmHg 64%
    18:00 +28°C° 0.1 mm 1 mps 691 mmHg 70%
    19:00 +27°C° 0.1 mm 1 mps 691 mmHg 77%
    20:00 +26°C° 0.6 mm 1 mps 691 mmHg 80%
    21:00 +25°C° 0.6 mm 1 mps 692 mmHg 84%
    22:00 +24°C° 0.6 mm 1 mps 692 mmHg 88%
    23:00 +24°C° 0.5 mm 1 mps 692 mmHg 90%

    28 March, Thursday

    Time Temperature Precipitation Wind Pressure Humidity
    00:00 +24°C° 0.5 mm 1 mps 691 mmHg 92%
    01:00 +23°C° 0.5 mm 1 mps 691 mmHg 94%
    02:00 +23°C° 0 mm 1 mps 691 mmHg 94%
    03:00 +23°C° 0 mm 1 mps 691 mmHg 93%
    04:00 +23°C° 0 mm 1 mps 690 mmHg 93%
    05:00 +23°C° 0 mm 1 mps 691 mmHg 93%
    06:00 +23°C° 0 mm 1 mps 691 mmHg 93%
    07:00 +23°C° 0 mm 1 mps 692 mmHg 93%
    08:00 +25°C° 0 mm 1 mps 692 mmHg 86%
    09:00 +27°C° 0 mm 1 mps 693 mmHg 80%
    10:00 +28°C° 0 mm 2 mps 693 mmHg 73%
    11:00 +30°C° 0.5 mm 2 mps 692 mmHg 67%
    12:00 +31°C° 0.5 mm 1 mps 692 mmHg 60%
    13:00 +33°C° 0.5 mm 1 mps 691 mmHg 54%
    14:00 +31°C° 0.8 mm 1 mps 691 mmHg 61%
    15:00 +30°C° 0.8 mm 2 mps 690 mmHg 68%
    16:00 +29°C° 0.8 mm 2 mps 690 mmHg 75%
    17:00 +27°C° 0.9 mm 1 mps 690 mmHg 81%
    18:00 +26°C° 0.9 mm 1 mps 691 mmHg 86%
    19:00 +22°C° 0.9 mm 0 mps 691 mmHg 92%
    20:00 +22°C° 0 mm 0 mps 691 mmHg 92%
    21:00 +22°C° 0 mm 0 mps 692 mmHg 93%
    22:00 +22°C° 0 mm 0 mps 692 mmHg 93%
    23:00 +21°C° 0 mm 0 mps 692 mmHg 94%

    29 March, Friday

    Time Temperature Precipitation Wind Pressure Humidity
    00:00 +21°C° 0 mm 0 mps 691 mmHg 95%
    01:00 +23°C° 0 mm 1 mps 691 mmHg 96%
    02:00 +23°C° 0 mm 1 mps 690 mmHg 96%
    03:00 +23°C° 0 mm 1 mps 690 mmHg 97%
    04:00 +22°C° 0 mm 1 mps 690 mmHg 97%
    05:00 +23°C° 0 mm 1 mps 690 mmHg 97%
    06:00 +23°C° 0 mm 1 mps 691 mmHg 96%
    07:00 +23°C° 0 mm 1 mps 691 mmHg 95%
    08:00 +25°C° 0 mm 1 mps 692 mmHg 85%
    09:00 +27°C° 0 mm 1 mps 692 mmHg 75%
    10:00 +29°C° 0 mm 1 mps 693 mmHg 65%
    11:00 +31°C° 0.1 mm 1 mps 692 mmHg 59%
    12:00 +33°C° 0.1 mm 1 mps 692 mmHg 53%
    13:00 +35°C° 0.1 mm 1 mps 691 mmHg 47%
    14:00 +34°C° 0.4 mm 1 mps 690 mmHg 52%
    15:00 +32°C° 0.4 mm 1 mps 690 mmHg 57%
    16:00 +31°C° 0.4 mm 1 mps 689 mmHg 62%
    17:00 +29°C° 0.7 mm 1 mps 690 mmHg 71%
    18:00 +27°C° 0.7 mm 1 mps 690 mmHg 79%
    19:00 +25°C° 0.7 mm 1 mps 690 mmHg 88%
    20:00 +24°C° 0.7 mm 1 mps 690 mmHg 90%
    21:00 +24°C° 0.7 mm 1 mps 691 mmHg 92%
    22:00 +23°C° 0.7 mm 1 mps 691 mmHg 94%
    23:00 +23°C° 1.4 mm 1 mps 691 mmHg 95%
    Show more